STARLINK-35383

Satellite information

Favourite Embed

Satellite Type and Status

PAYLOADIN ORBIT

Key statistics

Satellite STARLINK-35383 at a glance.

Uptime

32

Days in orbit

Revolutions

≈ 15.4

Per day

Orbit

SSO

Sun Synchronous Orbit

Inclination

97.6

Latest

Satellite identification and parameters

Extended collection of information and parameters for STARLINK-35383.

Object identification

Identified? True

Debris? False

Object name: STARLINK-35383

International designator: 2025-218C

Object number (NORAD): 65793

Object ID (CCSDS): 65793

Country: UNITED STATES OF AMERICA (US)

Current information (Y/N): Y

Orbital parameters

Period: 93.407 minutes

Inclination: 97.6026 deg

SMA: 6819.42 km

Apoapsis: 442.771 km

Periapsis: 439.799 km

RAAN: 161.8564 deg

Eccentricy: 0.00021787

Argument of periapsis: 89.2699 deg

Mean anomaly: 122.6518 deg

Mean motion: 15.41635171 rev/day

Mean motion (dot): -0.02385542 rev/day2

B* drag term: -0.063698571 1/REarth

Two-line elements (TLE)

Creation date: Oct. 28, 2025, 2:18 a.m.

Reference frame: TEME

Reference center: EARTH

Epoch: Oct. 27, 2025, 8 p.m. UTC

TLE line 0: 0 STARLINK-35383

TLE line 1: 1 65793U 25218C 25300.83334491 -.02385542 00000-0 -63699-1 0 9998

TLE line 2: 2 65793 97.6026 161.8564 0002179 89.2699 122.6518 15.41635171 6088

Live tracking on map

Real-time ground track for satellite STARLINK-35383.

In-orbit conjunctions

There are no conjunctions computed for STARLINK-35383, at the moment. Check back to stay up to date, as we update our databases every day.

Go to all conjunctions

Associated space launch

A batch of 24 satellites for the Starlink mega-constellation - SpaceX's project for space-based Internet communication system.

STARLINK-35383 was lifted into orbit during the mission ‘Falcon 9 Block 5 | Starlink Group 17-11’, on board a Falcon 9 space rocket.

The launch took place on Sept. 26, 2025, 4:26 a.m. from Space Launch Complex 4E.

For more information about the launch, click the button.

Launch to space Falcon 9 Block 5 | Starlink Group 17-11
Falcon 9 Block 5 | Starlink Group 17-11

Agency: SpaceX

Status: Launch Successful

Launch date: Sept. 26, 2025, 4:26 a.m. UTC

Rocket: Falcon 9

Launch pad: Space Launch Complex 4E

Location: Vandenberg SFB, CA, USA

...

Latest news about this satellite

News about space launch
Live coverage: SpaceX to launch 24 Starlink satellites on Falcon 9 rocket from Vandenberg

The Starlink 17-11 mission includes the 475th launch of a flight-proven booster. SpaceX is targeting liftoff from pad 4E at Vandenberg Space Force Base at 9:17 p.m. PDT (12:17 a.m. EDT / 0417 UTC).

News about space launch
Launch Roundup: Kuiper, Starlink, IMAP headline launch manifest

A busy slate of launches is planned for the last full week of September, including… The post Launch Roundup: Kuiper, Starlink, IMAP headline launch manifest appeared first on NASASpaceFlight.com.


Newsletter sign-up

Weekly statistics, charts and insights to help you stay on top of the space industry.